TimeCET,TemperatureF,Dew PointF,Humidity,Sea Level PressureIn,VisibilityMPH,Wind Direction,Wind SpeedMPH,Gust SpeedMPH,PrecipitationIn,Events,Conditions,WindDirDegrees,DateUTC
12:15 AM,46.4,41.0,81,29.59,6.2,East,5.8,-,N/A,Rain,Light Rain,80,2012-12-04 23:15:00
12:45 AM,44.6,41.0,87,29.56,6.2,East,5.8,-,N/A,Rain,Light Rain,100,2012-12-04 23:45:00
1:15 AM,44.6,41.0,87,29.56,6.2,East,3.5,-,N/A,,Mostly Cloudy,100,2012-12-05 00:15:00
1:45 AM,44.6,41.0,87,29.56,6.2,South,2.3,-,N/A,,Scattered Clouds,190,2012-12-05 00:45:00
2:15 AM,44.6,41.0,87,29.56,5.0,SSE,3.5,-,N/A,Rain-Thunderstorm,Light Thunderstorms and Rain,150,2012-12-05 01:15:00
2:45 AM,44.6,39.2,81,29.56,5.0,South,3.5,-,N/A,,Scattered Clouds,170,2012-12-05 01:45:00
3:15 AM,44.6,41.0,87,29.56,6.2,SW,2.3,-,N/A,,Scattered Clouds,220,2012-12-05 02:15:00
3:45 AM,41.0,37.4,87,29.56,6.2,SSE,2.3,-,N/A,,Partly Cloudy,160,2012-12-05 02:45:00
4:15 AM,41.0,37.4,87,29.56,6.2,SE,1.2,-,N/A,,Partly Cloudy,130,2012-12-05 03:15:00
4:45 AM,41.0,37.4,87,29.56,6.2,East,1.2,-,N/A,,Partly Cloudy,90,2012-12-05 03:45:00
5:15 AM,41.0,37.4,87,29.56,6.2,West,1.2,-,N/A,,Partly Cloudy,280,2012-12-05 04:15:00
5:45 AM,41.0,39.2,93,29.59,6.2,Calm,Calm,-,N/A,,Scattered Clouds,0,2012-12-05 04:45:00
6:15 AM,41.0,37.4,87,29.59,6.2,Calm,Calm,-,N/A,Thunderstorm,Thunderstorm,0,2012-12-05 05:15:00
6:45 AM,42.8,39.2,87,29.62,6.2,SSE,2.3,-,N/A,Thunderstorm,Thunderstorm,160,2012-12-05 05:45:00
7:15 AM,42.8,32.0,66,29.62,6.2,Calm,Calm,-,N/A,Thunderstorm,Thunderstorm,0,2012-12-05 06:15:00
7:45 AM,42.8,33.8,70,29.62,6.2,SSE,3.5,-,N/A,Thunderstorm,Thunderstorm,160,2012-12-05 06:45:00
8:15 AM,41.0,37.4,87,29.62,6.2,ESE,3.5,-,N/A,,Partly Cloudy,110,2012-12-05 07:15:00
8:45 AM,44.6,39.2,81,29.62,6.2,SE,2.3,-,N/A,,Partly Cloudy,130,2012-12-05 07:45:00
9:15 AM,46.4,35.6,66,29.62,6.2,SE,2.3,-,N/A,,Partly Cloudy,130,2012-12-05 08:15:00
9:45 AM,50.0,37.4,62,29.62,6.2,SE,2.3,-,N/A,,Partly Cloudy,140,2012-12-05 08:45:00
10:15 AM,51.8,33.8,50,29.62,6.2,SE,2.3,-,N/A,,Scattered Clouds,130,2012-12-05 09:15:00
10:45 AM,50.0,37.4,62,29.62,6.2,North,8.1,-,N/A,,Scattered Clouds,350,2012-12-05 09:45:00
11:15 AM,51.8,39.2,62,29.62,6.2,WNW,6.9,-,N/A,,Scattered Clouds,290,2012-12-05 10:15:00
11:45 AM,51.8,37.4,58,29.62,6.2,WNW,9.2,-,N/A,,Scattered Clouds,300,2012-12-05 10:45:00
12:15 PM,53.6,39.2,58,29.62,6.2,WSW,3.5,-,N/A,,Scattered Clouds,240,2012-12-05 11:15:00
12:45 PM,51.8,39.2,62,29.59,6.2,Calm,Calm,-,N/A,,Scattered Clouds,0,2012-12-05 11:45:00
1:15 PM,51.8,35.6,54,29.59,6.2,SSE,4.6,-,N/A,,Scattered Clouds,160,2012-12-05 12:15:00
1:45 PM,51.8,35.6,54,29.59,6.2,North,5.8,-,N/A,,Scattered Clouds,360,2012-12-05 12:45:00
3:15 PM,50.0,37.4,62,29.56,6.2,South,6.9,-,N/A,,Partly Cloudy,170,2012-12-05 14:15:00
3:45 PM,50.0,37.4,62,29.56,6.2,South,6.9,-,N/A,Rain,Light Rain Showers,170,2012-12-05 14:45:00
4:15 PM,50.0,39.2,66,29.53,6.2,South,4.6,-,N/A,,Partly Cloudy,170,2012-12-05 15:15:00
4:45 PM,46.4,37.4,71,29.56,6.2,NNW,12.7,24.2,N/A,Hail-Thunderstorm,Thunderstorms with Hail,340,2012-12-05 15:45:00
5:15 PM,42.8,37.4,81,29.59,6.2,NNE,13.8,-,N/A,Rain-Thunderstorm,Thunderstorms and Rain,20,2012-12-05 16:15:00
5:45 PM,41.0,35.6,81,29.62,6.2,ENE,10.4,-,N/A,Rain-Thunderstorm,Thunderstorms and Rain,60,2012-12-05 16:45:00
6:15 PM,41.0,35.6,81,29.59,6.2,East,8.1,-,N/A,Rain-Thunderstorm,Light Thunderstorms and Rain,90,2012-12-05 17:15:00
6:45 PM,42.8,32.0,66,29.62,6.2,North,1.2,-,N/A,Rain-Thunderstorm,Light Thunderstorms and Rain,360,2012-12-05 17:45:00
7:15 PM,42.8,32.0,66,29.62,6.2,NNE,4.6,-,N/A,,Partly Cloudy,20,2012-12-05 18:15:00
7:45 PM,42.8,33.8,70,29.62,6.2,NNE,2.3,-,N/A,,Partly Cloudy,30,2012-12-05 18:45:00
8:15 PM,41.0,32.0,70,29.62,6.2,NE,2.3,-,N/A,,Partly Cloudy,40,2012-12-05 19:15:00
8:45 PM,41.0,32.0,70,29.65,6.2,NNE,6.9,-,N/A,,Partly Cloudy,20,2012-12-05 19:45:00
9:15 PM,39.2,33.8,81,29.65,6.2,NE,6.9,-,N/A,,Partly Cloudy,40,2012-12-05 20:15:00
9:45 PM,37.4,33.8,87,29.65,6.2,NE,4.6,-,N/A,,Partly Cloudy,50,2012-12-05 20:45:00
10:15 PM,37.4,33.8,87,29.65,6.2,NE,4.6,-,N/A,,Partly Cloudy,50,2012-12-05 21:15:00
10:45 PM,37.4,33.8,87,29.65,6.2,Calm,Calm,-,N/A,,Partly Cloudy,0,2012-12-05 21:45:00
11:45 PM,35.6,33.8,93,29.65,6.2,NE,4.6,-,N/A,,Partly Cloudy,40,2012-12-05 22:45:00